Theta_e
297 297 296 296 296 296 296 296 296 297 298 298 297 297 297 299 308 309 309 310 309 309 309 309 309 309 306 307 312 315 317 319 320 321 321 321 320 323 323 324 327 331 333 333 335
297 297 296 296 296 296 296 296 297 298 298 297 297 297 298 300 308 309 309 309 309 309 308 308 309 309 308 310 310 313 315 317 317 317 318 318 318 320 321 324 329 332 333 333 335
298 298 297 297 297 296 296 296 297 298 297 297 297 300 302 304 309 309 310 309 309 309 308 307 308 309 311 312 310 311 311 312 314 315 317 318 319 319 321 322 325 330 332 333 335
299 298 298 297 297 297 296 297 298 298 297 297 300 305 306 307 308 310 309 309 309 309 307 307 308 309 310 312 313 313 311 311 311 313 316 319 319 319 319 321 322 323 327 333 334
298 298 297 297 297 296 297 297 298 298 297 298 303 308 307 308 309 310 309 309 309 307 308 310 309 310 309 310 311 311 312 312 312 312 313 316 319 319 320 320 322 323 323 327 333
299 297 297 297 297 297 297 297 298 297 297 302 305 308 309 308 309 310 308 309 307 307 307 309 310 309 309 309 311 310 311 311 311 311 313 317 317 320 320 319 322 323 323 325 330
299 298 299 298 297 298 298 297 298 297 298 304 306 308 309 309 308 309 309 307 306 308 309 310 310 310 310 311 311 311 312 311 311 311 312 315 318 319 319 319 321 325 326 329 330
300 299 299 298 299 299 297 298 297 298 302 305 308 307 308 308 309 309 309 307 308 309 310 310 310 310 311 311 311 311 311 312 311 311 313 315 312 316 318 314 315 328 328 332 329
300 300 300 298 298 298 297 298 298 301 305 306 308 308 308 308 309 309 308 308 309 310 311 311 311 310 311 312 312 311 313 313 312 311 315 315 313 314 316 310 314 324 330 330 330
301 299 300 299 298 297 298 298 299 304 306 306 307 306 307 308 309 309 308 309 309 310 311 312 310 311 311 312 314 313 314 313 312 313 315 316 314 316 311 308 309 313 320 328 330
301 298 299 298 298 297 298 299 300 303 305 305 306 307 307 308 309 309 309 309 309 309 306 309 309 306 311 313 313 314 314 313 314 312 315 317 315 315 311 309 307 308 310 318 325
301 298 299 299 298 297 298 299 301 300 301 306 307 307 307 308 309 309 309 309 309 307 305 305 307 309 311 313 313 313 311 313 313 312 314 317 316 312 310 311 308 306 309 312 319
299 299 299 298 298 298 297 298 302 302 303 305 306 306 306 307 308 309 309 309 308 307 306 308 308 309 310 312 312 312 313 310 316 317 315 316 315 317 312 311 311 308 307 309 312
298 299 299 298 298 297 297 296 302 303 296 302 305 306 307 307 307 309 309 310 307 308 307 305 307 308 310 313 312 313 313 312 315 320 320 311 318 311 313 311 310 311 308 307 310
298 299 299 298 298 297 297 296 302 302 299 301 304 305 306 307 307 308 308 309 308 308 306 307 307 307 309 312 310 314 311 314 315 316 317 314 316 313 310 311 310 310 309 307 308
299 300 299 298 298 297 297 298 303 298 298 304 303 303 305 305 306 307 307 307 308 306 304 304 305 306 307 307 309 309 311 312 312 314 316 316 317 315 312 310 308 309 308 308 307
300 300 299 298 298 298 297 301 296 298 297 300 303 303 304 305 305 304 306 305 307 303 305 305 305 304 306 307 307 307 308 305 309 314 317 310 313 312 311 310 308 307 309 310 310
300 300 300 298 298 298 297 293 292 290 294 300 302 303 305 303 304 304 305 304 304 307 307 307 305 305 305 308 308 308 309 309 309 313 315 307 312 311 308 308 308 308 311 311 313
301 300 299 298 298 297 298 290 292 291 300 302 303 303 299 303 306 303 303 303 305 307 308 307 307 305 305 306 306 308 309 308 308 303 308 307 307 307 308 306 304 305 306 310 311
301 300 298 298 298 297 294 295 290 296 301 302 303 302 301 300 305 303 299 301 304 305 306 308 307 305 305 305 306 307 306 307 305 303 309 310 307 308 306 304 303 303 303 304 305
301 299 298 298 297 299 291 289 294 299 301 302 300 303 303 304 300 304 303 301 303 303 305 307 306 305 305 307 308 306 307 306 306 307 308 310 309 304 305 303 303 302 300 301 302
300 293 298 298 296 290 289 287 297 299 300 301 301 302 302 302 304 302 304 303 305 306 307 306 305 302 307 304 303 306 308 305 304 307 305 307 307 305 304 302 302 300 299 300 300
299 297 299 297 291 287 289 290 295 298 299 300 300 301 302 303 302 303 303 303 303 305 306 307 298 297 300 301 302 305 306 306 304 304 306 305 306 303 302 301 302 300 299 299 300
298 297 298 298 296 290 288 289 293 297 299 300 301 301 301 302 301 302 303 302 303 304 305 305 302 301 300 302 302 305 306 306 305 302 306 305 305 305 301 300 301 300 299 300 300
298 293 298 298 297 292 294 293 295 294 296 299 300 300 301 301 302 302 302 302 302 305 301 301 298 299 301 299 299 302 304 305 308 306 303 305 304 303 300 298 301 300 299 300 300
298 295 296 297 297 296 295 294 297 296 296 296 297 299 300 301 301 302 300 301 302 300 300 297 295 296 296 297 295 296 298 302 303 306 306 306 307 301 302 300 301 299 299 299 299
299 298 298 296 296 296 296 295 296 297 297 298 298 299 300 299 299 299 300 299 300 300 300 297 294 291 294 292 290 292 294 298 302 302 303 306 304 300 297 299 300 299 299 299 299
Wind_Speed
7 8 8 9 8 9 10 11 12 13 15 15 15 14 13 11 8 4 7 11 13 14 15 11 9 9 3 2 4 1 2 15 10 2 3 14 3 7 10 16 11 12 11 8 16
8 8 8 9 10 10 10 11 12 13 14 14 15 13 11 9 8 5 8 12 13 12 12 15 13 11 2 1 3 4 4 7 4 3 2 9 12 17 8 8 8 13 16 13 16
9 10 10 10 11 11 11 11 12 13 13 14 12 11 9 7 3 3 10 14 10 10 13 13 11 9 2 1 2 3 7 10 20 16 13 9 12 17 11 6 11 15 23 20 22
11 12 11 11 11 10 11 11 13 14 13 13 10 10 8 4 3 5 12 10 6 8 10 10 10 3 2 2 3 4 5 6 9 12 11 4 12 16 11 22 22 16 13 21 27
11 11 11 11 11 11 11 12 12 13 13 11 9 8 5 3 3 9 9 5 6 7 9 14 9 3 2 3 5 6 7 11 14 20 20 16 14 8 22 23 24 21 18 18 28
11 10 10 10 11 11 12 12 13 14 11 8 7 8 4 1 7 9 7 4 6 7 6 8 7 5 4 6 6 6 12 18 23 21 16 13 13 9 23 28 22 20 20 22 27
10 10 9 9 10 12 13 13 13 11 6 6 5 8 4 2 8 10 5 5 5 6 6 7 7 6 1 5 7 10 11 11 12 15 11 12 12 11 9 21 25 15 18 24 29
10 9 10 10 10 12 13 12 12 7 5 5 5 8 2 3 8 8 6 5 7 10 6 4 7 4 3 7 6 5 7 6 0 8 7 11 14 10 3 14 23 12 16 21 23
10 9 9 11 11 12 12 11 8 4 6 4 3 4 2 4 9 7 6 7 9 5 6 2 2 1 1 4 4 3 7 8 11 11 5 12 7 6 12 15 9 14 9 6 9
11 9 9 10 10 11 10 9 4 4 4 3 3 2 2 6 8 8 6 9 4 6 3 1 1 0 1 1 5 5 6 6 11 4 12 13 2 11 20 17 14 18 14 9 9
11 9 8 9 10 10 7 3 2 3 2 2 2 1 5 9 2 9 11 6 5 2 3 1 1 2 6 8 11 12 11 16 7 6 4 8 6 7 20 12 25 28 24 21 14
10 8 8 8 8 8 9 3 4 3 5 3 2 3 4 9 4 9 12 3 4 3 6 4 2 4 8 8 11 6 11 10 11 6 8 9 11 13 9 9 24 31 25 24 13
9 8 6 7 6 5 6 6 5 5 2 3 1 2 3 6 4 7 11 4 4 4 4 0 4 7 4 8 14 5 6 7 4 9 5 11 4 5 4 14 27 35 26 27 19
9 7 6 5 4 3 3 5 5 5 4 3 1 2 2 5 2 6 7 3 2 2 3 4 4 4 4 7 5 5 11 7 9 2 3 4 4 1 4 12 19 24 32 27 31
8 7 5 3 2 1 1 2 2 3 4 3 3 3 5 3 5 4 5 2 1 4 1 4 5 4 2 6 4 6 6 3 5 4 3 6 4 4 6 10 12 15 21 17 21
9 7 6 3 3 1 1 1 2 5 4 1 3 4 3 4 4 7 4 4 1 2 3 5 5 2 3 6 5 10 3 2 2 3 3 6 1 3 4 5 4 10 23 33 27
10 8 6 4 2 2 0 1 5 4 3 4 2 3 2 3 3 6 4 5 4 5 6 6 5 6 2 5 5 8 5 3 5 5 3 10 7 4 9 6 5 8 11 17 23
12 10 7 6 5 3 3 5 3 2 4 0 0 1 2 4 3 5 2 4 5 4 3 4 5 6 7 1 3 5 3 3 1 2 2 7 6 5 4 7 7 3 4 7 10
12 10 8 8 7 6 3 4 7 6 2 4 2 4 4 2 1 3 4 1 1 4 1 3 4 5 3 3 2 7 4 2 5 2 3 3 1 1 2 3 6 10 9 3 3
13 8 8 10 10 9 3 4 4 3 2 1 4 3 3 3 1 2 1 2 2 1 1 1 5 2 5 3 2 2 2 3 3 3 3 2 3 2 4 5 6 11 13 16 17
13 6 7 12 12 5 3 6 4 4 3 3 4 3 3 3 3 1 3 3 3 3 3 2 1 5 2 5 2 5 3 4 3 2 2 3 0 2 2 3 6 9 16 17 20
14 1 13 18 5 1 3 6 3 4 4 1 2 2 5 5 3 1 3 3 2 1 1 1 1 3 2 3 2 1 1 1 3 2 2 2 3 2 4 6 12 13 16 20 21
15 5 13 22 3 2 2 2 3 4 4 5 5 4 3 4 2 4 4 3 0 2 1 2 2 3 6 5 3 4 3 1 1 2 1 4 3 2 5 9 10 14 15 17 19
13 4 7 14 4 6 5 4 3 6 3 4 5 4 3 4 4 5 5 3 2 2 2 1 1 4 4 2 2 3 4 3 2 2 3 3 4 3 4 6 8 10 12 14 16
13 6 11 6 9 5 5 6 6 4 3 6 1 5 5 3 3 4 3 2 0 2 2 2 2 0 0 2 3 3 3 3 1 1 2 2 7 5 6 7 9 9 10 12 15
13 8 9 9 10 15 8 7 10 4 8 5 4 8 6 6 7 7 6 3 3 2 2 1 2 1 3 2 3 4 7 4 3 2 4 2 1 4 6 9 11 10 11 12 12
23 18 12 13 7 9 7 7 10 13 10 6 11 5 6 6 5 3 4 4 5 5 3 2 4 3 4 4 3 5 7 6 3 1 5 5 4 6 4 9 11 11 9 9 9
Wind_Direction
347 346 343 344 341 335 335 338 340 341 341 342 344 341 340 350 360 19 32 15 357 351 347 353 4 10 11 109 165 167 254 248 250 210 272 279 314 255 281 236 222 209 220 212 197
341 339 340 338 339 337 335 335 337 342 338 337 340 344 343 352 2 84 14 358 349 349 356 4 9 11 40 80 192 201 251 268 2 344 353 316 307 315 264 260 226 215 218 218 194
329 330 334 336 337 335 333 335 336 337 334 336 343 346 347 4 74 33 347 338 345 358 5 7 11 9 27 311 233 251 246 259 277 291 303 321 315 328 291 264 249 230 220 207 191
324 326 328 331 332 332 330 330 334 336 332 336 341 350 354 28 116 343 336 347 7 5 6 10 351 14 354 276 302 299 308 318 302 308 304 286 315 319 295 273 278 290 268 219 198
325 327 329 329 328 327 328 329 330 329 328 330 335 353 359 59 43 346 350 7 15 8 18 17 45 26 2 313 306 253 292 300 305 285 267 274 267 256 299 306 283 286 267 243 216
321 328 332 332 327 325 326 327 326 326 324 328 338 348 7 87 11 2 9 359 355 355 356 358 351 314 256 246 220 237 277 274 281 285 289 258 251 238 257 306 294 269 269 249 227
319 326 331 332 328 326 328 324 324 324 315 330 339 339 327 112 359 349 353 352 357 350 342 341 330 336 177 265 268 280 287 293 251 230 234 260 267 232 249 297 297 275 254 241 223
313 316 326 325 323 324 326 325 323 318 310 329 340 334 299 351 354 347 348 341 342 329 336 329 334 314 226 287 289 267 267 283 233 207 237 176 259 219 2 340 298 291 258 241 218
309 308 317 322 326 326 328 325 318 306 311 300 315 339 317 338 357 359 342 336 333 348 347 319 347 268 312 288 275 228 272 258 294 202 200 184 249 171 26 358 9 3 315 271 228
306 302 313 322 325 329 331 326 305 290 326 303 307 342 9 327 339 3 354 331 333 343 75 39 243 283 198 267 302 280 259 257 252 288 204 200 159 63 36 355 57 39 26 57 26
304 300 307 319 329 333 343 330 312 266 275 304 325 326 335 341 8 9 352 337 343 27 8 306 359 309 321 317 296 268 279 269 226 245 249 219 169 63 19 303 43 44 17 43 59
295 289 300 318 332 340 358 33 35 312 313 231 281 312 335 350 331 11 358 5 22 8 340 13 322 313 307 309 333 281 282 308 258 210 204 152 132 87 35 344 50 53 27 30 32
286 278 296 317 326 342 13 43 22 8 316 303 223 322 345 343 335 344 2 5 43 8 350 235 280 323 343 343 349 317 308 334 299 89 73 121 52 122 193 31 49 49 40 32 29
269 268 286 304 308 360 24 8 10 7 66 311 2 29 340 332 320 349 360 18 2 327 321 247 302 337 348 351 343 330 344 343 12 99 70 354 134 248 74 53 37 33 38 26 28
254 254 274 295 304 351 11 1 1 351 14 307 334 331 342 30 323 14 0 30 31 310 4 291 317 337 349 284 319 262 333 344 45 51 108 14 89 334 16 34 31 21 57 41 43
239 239 255 253 241 220 335 7 340 43 252 5 321 350 47 11 356 332 7 28 23 333 327 271 285 247 262 286 248 285 288 251 7 71 73 341 282 33 31 29 12 42 33 48 39
232 233 238 223 218 195 271 347 34 134 337 308 342 31 106 343 3 27 38 20 42 32 5 327 314 311 328 338 321 14 21 349 4 47 19 339 53 31 18 39 30 49 54 45 48
222 226 226 219 206 178 157 51 100 231 227 181 19 58 57 351 9 355 69 27 7 28 0 351 333 353 335 69 292 321 40 104 108 46 15 2 25 14 317 331 349 75 59 27 6
210 217 223 209 194 182 174 76 207 203 181 160 63 78 332 348 26 44 26 14 299 20 354 357 273 308 256 311 52 319 38 284 112 350 70 7 144 46 234 3 57 63 57 54 303
204 211 219 196 184 165 86 238 204 200 158 150 167 137 191 275 74 61 348 259 316 255 76 322 298 275 296 344 7 44 298 12 10 68 69 51 60 73 22 35 47 55 59 71 77
191 185 194 180 164 170 163 228 235 206 172 147 195 149 203 170 144 196 197 246 210 302 240 331 135 293 360 15 350 346 8 32 113 64 135 117 331 220 146 113 97 74 80 80 77
180 133 173 167 126 202 168 191 201 166 171 155 122 154 192 172 153 213 223 184 20 252 304 48 1 260 252 278 238 242 354 33 103 280 46 89 221 128 164 125 108 97 93 87 80
165 130 174 175 155 246 295 294 223 158 186 170 191 204 204 172 127 202 207 193 126 45 64 22 333 354 347 353 7 44 336 328 73 53 221 124 230 113 129 98 96 97 84 79 76
157 139 166 197 221 152 148 227 193 206 185 182 167 154 169 169 196 187 197 212 180 169 103 86 133 178 192 222 313 324 338 359 45 86 181 199 150 147 131 110 109 98 89 80 70
176 194 173 171 205 176 194 153 143 171 208 192 238 220 175 147 168 217 168 151 174 163 74 109 163 191 165 13 320 286 283 329 64 51 118 206 157 196 167 153 143 121 103 80 63
170 153 167 165 155 170 196 206 171 178 151 225 203 190 192 159 184 195 160 196 195 138 102 31 162 90 336 349 359 292 283 267 244 162 115 67 134 173 139 139 143 129 104 76 57
194 185 170 161 152 164 204 190 196 148 207 187 195 140 188 206 153 129 162 118 152 153 135 82 129 77 271 340 343 330 230 194 192 215 142 171 201 171 140 151 151 130 96 69 46